Miscellaneous Local Product
Issued by NWS Hastings, NE

Home | Current Version | Previous Version | Graphics & Text | Print | Product List | Glossary On
Versions: 1 2 3 4 5 6 7 8 9 10 11 12 13 14 15 16 17 18 19 20 21 22 23 24 25 26 27 28 29 30 31 32 33 34 35 36 37 38 39 40 41 42 43 44 45 46 47 48 49 50
000
AXUS43 KGID 161402
MISGRI

GID CWA HOURLY WEATHER ROUNDUP
NATIONAL WEATHER SERVICE HASTINGS NE
800 AM CST MON JAN 16 2017

NOTE: "FAIR" INDICATES FEW OR NO CLOUDS BELOW 12,000 FEET WITH NO
SIGNIFICANT WEATHER AND/OR OBSTRUCTIONS TO VISIBILITY.

...SOUTH CENTRAL NEBRASKA...

CITY           SKY/WX    TMP DP  RH WIND       PRES   REMARKS
GRAND ISLAND   FRZ RAIN  31  31 100 NE16      29.93F FOG     WCI  20
HASTINGS       FRZ RAIN  32  30  92 NE18      29.91F FOG     WCI  20
KEARNEY        CLOUDY    30  28  93 N13       29.92F WCI  20
ORD            CLOUDY    32  30  92 N9        29.96F FOG     WCI  24
YORK           RAIN      32  32 100 CALM      29.93F
AURORA         MIX PCPN  32  31  97 NE8       29.92F WCI  25
LEXINGTON      LGT RAIN  32  31  96 N8        29.93S WCI  25
HOLDREGE       MIX PCPN  32  31  96 N7        29.89F WCI  26
HEBRON         LGT SNOW  32  32  99 NE7       29.90F WCI  26

...NEBRASKA PANHANDLE...

CITY           SKY/WX    TMP DP  RH WIND       PRES   REMARKS
CHADRON        CLOUDY    25  17  72 VRB3      30.10R
ALLIANCE       CLOUDY    30  22  72 N13       30.02R WCI  20
SCOTTSBLUFF    CLOUDY    35  23  61 N10       30.04R WCI  27
SIDNEY         LGT SNOW  30  27  88 N17G24    29.98S FOG     WCI  18

...WESTERN AND NORTH CENTRAL NEBRASKA...

CITY           SKY/WX    TMP DP  RH WIND       PRES   REMARKS
VALENTINE      CLOUDY    29  21  72 NW8       30.04S WCI  21
AINSWORTH      CLOUDY    29  28  95 N7        30.01F WCI  22
ONEILL         MIX PCPN  32  32 100 N10       30.01S WCI  24
BROKEN BOW     FRZ RAIN  33  31  92 N16       29.94S FOG     WCI  23
IMPERIAL       FRZ RAIN  33  30  88 N18       29.91S WCI  22
NORTH PLATTE   LGT RAIN  33  31  92 N10       29.94F WCI  25
MCCOOK         MIX PCPN  32  32 100 N13       29.91S FOG     WCI  22

...EASTERN NEBRASKA...

CITY           SKY/WX    TMP DP  RH WIND       PRES   REMARKS
NORFOLK        CLOUDY    31  29  92 NE7       29.99F WCI  24
SO SIOUX CITY  CLOUDY    34  31  88 NE8       30.04F WCI  27
TEKAMAH        CLOUDY    33  31  92 NE8       30.01F WCI  26
COLUMBUS       CLOUDY    32  28  86 CALM      29.97F
ALBION         MIX PCPN  32  30  93 NE8       29.98S WCI  25
OMAHA EPPLEY   LGT RAIN  33  29  85 NE9       29.99F FOG     WCI  25
OFFUTT AFB     RAIN      33  33 100 NE9       29.97F FOG     WCI  25
MILLARD        LGT RAIN  34  33  94 NE3       29.98F
LINCOLN        LGT RAIN  33  32  96 NE10      29.98S FOG     WCI  25
NEBRASKA CITY  MIX PCPN  32  32 100 NE8       29.95F WCI  25
BEATRICE       LGT SNOW  33  32  96 NE8       29.91F WCI  26
FALLS CITY     RAIN      33  32  96 E9        29.92F WCI  25

...NORTHERN KANSAS...

CITY           SKY/WX    TMP DP  RH WIND       PRES   REMARKS
GOODLAND       FRZ RAIN  32  31  96 N17       29.87R WCI  21
HILL CITY      FRZ RAIN  33  32  96 N8        29.89R FOG     WCI  26
NORTON         MIX PCPN  34  28  80 N5        29.87S WCI  30
PHILLIPSBURG   RAIN      34  34 100 N3        29.90R
SMITH CENTER   LGT SNOW  30  30 100 NE3       29.90R
HAYS           FLURRIES  32  31  96 N14       29.84S WCI  22
RUSSELL        CLOUDY    32  31  96 N13       29.82F WCI  22
CONCORDIA      FRZ RAIN  32  32 100 NE13      29.86S FOG     WCI  22
SALINA         CLOUDY    34  32  92 N9        29.83F FOG     WCI  27
TOPEKA         MIX PCPN  37  34  89 E7        29.86F FOG     WCI  32



USA.gov is the U.S. government's official web portal to all federal, state and local government web resources and services.